Location: Unspecified
(0.0000°N, 0.0000°E)
Time: 17:02:05
(UTC+00:00)

Hubble Space Telescope - Pass Details

Date: 08 March 2026
Orbit: 476 x 478 km, 28.5° (Epoch: 15 March)

Event Time Altitude Azimuth Distance (km) Brightness Sun altitude
Exits shadow 05:09:33 25° 241° (WSW) 989 1.6 -15.3°
Maximum altitude 05:10:38 30° 210° (SSW) 880 1.6 -15.0°
Drops below altitude 10° 05:13:58 10° 147° (SSE) 1,636 3.8 -14.2°
Sets 05:16:21 0° 136° (SE) 2,515 5.0 -13.6°
